Wind_Speed
47 48 48 48 48 48 47 46 45 43 42 40 39 39 38 36 35 33 32 30 30 31 32 32 32 33 32 30 29 28 27 26 25 24 24 24 23 24 22 20 20 21 20 20 20 20 20 20 20 19 18 18 18 17 18 17 17 16 16 16 16 15 15 15 14 12 11 10 10 10 9 10 11 12 11 12 12 12 12 13 14 14 13 13 13
47 48 48 47 47 47 46 46 46 45 43 42 42 41 39 38 36 35 34 33 31 31 32 33 33 34 33 32 31 30 29 28 27 26 26 25 25 25 25 24 24 23 22 22 22 22 22 21 21 21 20 19 19 19 18 17 17 17 17 17 16 16 17 16 15 14 12 12 12 10 11 12 11 11 12 11 12 12 12 13 14 14 14 13 11
46 47 47 47 46 46 46 46 46 45 45 44 44 42 41 39 38 37 36 35 33 33 32 33 35 35 35 34 33 32 31 29 28 28 28 27 26 26 26 26 26 25 24 24 24 23 23 23 23 22 22 21 21 20 19 18 18 17 17 18 17 17 17 18 17 15 13 12 12 11 11 12 11 11 12 12 12 13 13 13 14 14 14 15 13
46 46 46 46 45 46 45 45 46 46 46 46 45 43 42 40 39 38 37 36 36 35 34 34 36 37 37 37 35 34 33 32 31 30 30 29 28 27 27 28 28 27 26 25 25 25 25 24 24 24 24 23 22 21 21 20 20 19 18 18 18 17 17 18 18 17 15 13 12 11 11 11 11 11 12 12 12 14 14 14 14 14 15 16 14
45 46 45 44 45 45 44 44 45 45 46 46 46 45 43 42 41 39 38 38 38 37 36 36 37 38 39 39 38 37 35 34 33 32 31 31 30 29 29 29 29 29 27 26 26 26 26 25 24 25 25 25 23 23 23 22 21 20 20 19 18 18 17 18 19 18 17 15 14 12 12 12 12 11 12 13 13 13 14 15 15 16 17 16 14
45 46 46 45 45 45 44 44 44 43 43 44 45 44 43 43 42 41 39 39 39 39 39 38 38 39 40 40 39 39 37 36 35 34 33 33 32 31 31 31 31 31 30 29 28 28 27 26 25 26 26 26 25 24 24 23 22 21 21 20 19 19 18 18 19 19 19 18 16 14 14 13 13 13 14 15 14 13 14 15 15 17 18 18 15
45 47 47 47 47 46 45 44 43 42 42 42 43 43 42 42 42 41 39 39 39 40 40 40 39 40 40 40 40 40 39 38 38 37 35 35 34 33 33 33 32 32 32 31 30 30 29 28 27 27 27 27 26 25 25 24 23 22 21 21 20 20 20 19 19 19 19 18 17 16 15 14 15 15 14 15 16 15 15 16 17 17 17 19 18
45 47 48 49 49 49 47 45 43 43 43 42 42 42 42 41 42 41 40 39 40 40 41 41 40 39 40 40 40 40 40 40 40 39 38 37 37 36 35 34 34 34 34 33 32 32 31 31 29 28 29 28 27 26 26 26 24 23 22 21 20 21 21 19 19 19 18 17 17 17 16 16 16 16 15 15 16 17 18 18 19 18 16 16 18
45 47 48 50 51 50 48 47 45 45 45 45 44 43 43 43 43 42 42 41 40 40 41 41 40 40 39 40 40 40 41 42 43 42 40 40 39 38 37 36 35 35 35 35 34 34 33 33 32 31 30 29 27 26 26 26 25 23 22 21 20 20 21 20 19 19 18 18 18 17 17 17 18 17 16 17 17 17 17 18 19 18 16 15 16
44 47 48 50 50 49 48 47 46 46 47 47 46 45 45 46 45 45 44 43 41 41 41 42 42 41 40 40 41 41 42 44 44 44 42 41 40 40 39 38 37 37 37 36 36 36 35 34 34 33 32 31 28 26 25 25 25 23 22 21 20 20 20 20 20 20 19 19 18 18 18 18 18 18 18 18 17 16 16 17 18 17 16 17 17
43 46 48 49 49 49 48 47 47 47 47 47 47 46 47 47 47 47 46 45 44 43 43 43 44 43 43 41 41 42 43 44 46 45 44 42 42 41 41 40 39 39 39 39 38 37 36 35 35 34 34 32 30 28 26 25 25 23 22 22 21 20 20 19 19 19 19 19 19 18 19 19 18 17 17 16 15 16 16 16 17 17 18 19 18
43 46 47 48 49 48 47 47 47 47 47 47 47 46 47 48 48 48 48 47 45 45 45 45 44 45 45 44 43 43 44 45 46 46 45 44 43 42 42 42 41 40 40 40 39 38 37 36 35 35 35 34 32 30 28 26 25 24 23 22 22 21 21 20 18 18 19 20 20 20 20 19 18 17 17 16 15 16 15 15 17 19 19 18 17
42 45 46 47 47 47 45 45 46 47 47 47 47 46 46 48 49 49 49 47 46 46 46 45 45 45 45 46 45 45 45 45 46 46 46 45 44 43 43 43 43 43 42 41 40 39 38 38 37 37 36 34 32 31 30 28 27 25 23 23 24 24 23 23 22 21 20 20 21 21 20 19 19 18 18 17 16 16 16 15 16 18 18 18 20
40 44 46 46 46 45 44 44 45 46 46 46 46 47 47 47 48 49 49 49 49 48 48 47 46 45 45 46 46 46 47 47 46 46 46 45 44 44 43 43 44 44 44 43 42 41 40 39 38 38 37 35 32 31 30 29 28 27 26 26 26 26 25 25 25 24 24 24 23 22 21 19 19 19 19 18 18 16 15 15 16 17 18 18 20
39 42 45 45 44 43 42 43 44 45 46 47 47 48 48 48 48 49 49 49 49 49 49 48 47 46 46 46 46 47 48 48 47 47 46 45 44 43 42 42 43 45 46 45 44 42 41 41 40 38 38 36 34 32 30 30 29 28 28 28 27 27 26 26 25 25 25 26 26 25 23 20 20 19 19 19 19 17 16 16 17 18 19 18 19
41 43 45 44 42 42 41 41 43 44 46 47 48 48 48 48 48 49 49 49 49 49 48 48 47 47 47 47 47 48 48 48 48 47 46 44 43 42 42 43 43 46 47 46 45 43 41 41 41 40 39 38 36 33 30 30 30 29 28 28 27 27 26 26 26 25 25 25 25 25 24 23 22 21 19 19 18 19 19 18 18 19 18 18 16
43 43 43 43 42 42 42 42 43 44 46 47 47 47 47 47 47 48 48 48 49 49 49 48 47 47 47 47 48 49 48 48 49 47 46 44 43 43 43 43 45 46 46 46 46 44 41 39 39 41 40 39 38 35 32 30 30 28 26 24 24 22 21 22 24 24 25 25 25 25 24 24 23 22 22 22 21 20 18 15 15 15 14 13 11
42 42 41 42 42 42 42 43 44 44 45 45 45 45 45 46 46 47 47 47 47 47 47 47 47 47 47 47 48 49 49 50 50 49 47 45 44 44 44 44 45 45 45 46 44 40 38 39 39 40 41 41 39 36 33 31 31 28 24 23 23 19 18 20 23 23 24 24 24 24 25 24 24 23 24 23 23 23 19 14 12 12 11 11 11
39 40 41 41 41 41 41 41 42 42 42 41 42 43 44 45 45 45 46 46 46 45 44 45 46 47 47 47 47 48 49 50 51 50 49 47 45 45 44 44 45 45 45 45 40 35 36 39 41 41 42 41 40 37 34 34 33 29 25 24 24 20 18 20 21 21 22 24 24 24 24 23 23 23 23 22 22 21 17 13 10 10 10 12 12
36 38 39 40 41 41 40 39 39 40 40 40 41 42 42 43 43 44 45 44 44 44 43 44 45 46 45 45 46 47 48 48 50 51 51 49 47 46 46 46 46 45 46 45 42 38 35 35 38 42 42 41 40 37 35 35 34 31 27 25 24 21 17 17 19 19 20 22 22 22 23 22 21 20 20 20 18 15 13 12 10 9 11 12 12
33 34 35 37 39 39 38 36 37 39 40 39 40 40 41 41 42 43 43 42 43 44 43 43 42 41 41 41 43 46 47 47 48 50 51 51 49 49 49 49 47 46 46 47 46 43 37 32 34 41 43 42 41 38 36 36 34 33 31 26 23 20 18 18 21 20 16 15 16 17 16 16 16 15 13 12 12 12 11 11 9 10 12 12 10
28 29 30 34 36 36 36 36 37 39 39 39 41 41 41 41 41 42 41 39 40 42 42 41 38 36 36 37 39 42 42 41 44 47 48 49 50 50 52 51 49 47 47 48 48 45 40 36 38 42 43 43 42 39 38 37 35 34 34 28 24 23 22 20 22 21 14 12 13 12 12 12 11 10 9 9 11 11 10 9 10 11 11 11 11
24 24 25 28 31 33 34 35 36 37 37 38 39 39 40 41 41 41 40 36 34 35 34 33 32 33 33 33 34 34 33 33 36 40 43 45 47 49 51 51 50 49 50 50 50 47 45 42 42 45 44 41 41 40 39 39 37 34 34 31 28 27 24 19 20 20 15 12 13 13 12 12 11 11 13 12 12 12 10 9 12 13 12 12 14
21 20 20 22 25 28 31 32 33 33 33 35 36 36 39 41 40 41 40 34 28 27 27 25 26 29 30 30 31 32 29 29 32 37 41 42 44 45 46 46 48 50 52 50 44 40 41 42 44 46 43 40 40 40 40 39 37 35 34 31 29 29 26 22 21 20 15 15 16 14 14 14 15 15 16 14 13 14 15 14 14 14 13 13 14
18 17 17 18 19 22 25 28 29 29 29 31 32 33 36 38 39 40 39 33 27 27 28 26 24 26 27 28 30 31 29 28 29 34 39 40 41 42 43 43 45 48 51 50 43 34 32 37 42 43 40 36 37 38 39 39 38 36 34 31 30 30 29 26 24 21 17 16 16 14 15 17 18 16 15 16 16 18 18 16 14 14 13 12 12
16 16 16 17 17 18 20 22 23 25 26 27 29 30 31 34 35 36 36 33 28 26 27 27 25 25 26 27 28 29 30 28 28 31 37 40 40 42 44 45 45 44 46 51 49 39 33 35 38 38 36 34 36 38 40 39 37 36 34 32 31 32 32 29 26 23 20 17 15 16 16 17 17 17 20 22 21 18 17 16 14 12 10 10 11
14 14 15 15 15 16 17 19 19 20 22 23 24 25 26 28 29 31 32 31 27 25 26 27 26 25 26 27 26 27 29 29 29 30 35 39 41 43 45 47 45 43 43 47 49 45 40 38 38 36 33 33 35 37 38 38 37 36 35 35 34 33 32 30 27 24 22 18 16 17 18 18 19 20 22 23 21 18 16 16 13 10 9 10 11
12 11 12 13 13 14 15 17 17 16 17 19 20 20 21 23 24 26 27 27 25 25 26 27 27 25 26 27 27 28 30 32 31 32 35 38 39 40 42 45 46 46 47 47 50 50 47 43 40 37 35 35 36 37 38 39 39 39 37 37 36 33 31 29 25 23 22 21 19 20 21 22 23 21 18 19 20 19 17 16 13 11 11 12 12
10 9 10 10 10 12 12 13 15 15 14 16 17 18 20 21 21 22 23 24 25 24 25 26 26 26 25 26 27 29 30 30 30 31 35 40 42 42 43 44 45 46 47 47 49 51 51 49 45 42 40 39 39 41 41 41 41 40 38 39 38 35 31 29 26 25 25 24 25 26 26 26 24 21 19 20 21 18 16 16 15 13 12 13 13
9 8 9 9 9 10 10 9 11 12 12 12 14 18 22 22 21 21 22 24 24 24 24 24 24 25 28 29 30 32 33 34 33 34 37 41 44 45 45 45 45 44 46 47 49 53 54 53 50 47 46 44 44 45 46 45 44 43 41 41 41 39 35 32 29 27 26 27 27 27 26 26 26 24 22 21 19 17 15 16 15 14 13 13 13
8 8 9 9 10 12 11 9 8 9 12 14 14 15 16 17 19 21 24 25 24 24 25 26 27 29 32 34 35 38 40 41 42 42 44 45 47 49 50 50 49 47 46 48 52 57 58 56 53 51 50 48 48 49 50 49 47 46 45 44 43 41 38 35 32 29 29 31 29 25 23 25 27 26 23 20 18 16 15 15 14 14 14 14 13
9 9 10 10 11 12 11 10 8 8 13 17 17 13 11 10 13 17 21 23 23 22 23 23 24 25 27 30 34 36 38 40 42 45 48 50 52 53 55 57 57 54 51 51 55 61 63 60 57 55 54 53 53 53 54 53 50 49 48 47 45 42 39 37 35 33 32 33 29 24 23 26 27 25 22 20 17 16 16 15 13 13 15 14 13
9 9 9 10 11 12 12 12 10 9 10 11 11 9 9 8 7 6 6 7 8 10 11 12 15 17 18 20 23 26 29 33 36 40 45 49 53 57 60 61 61 58 55 55 58 63 65 64 63 61 61 60 58 56 57 56 54 51 49 46 44 41 37 35 34 34 34 32 28 25 27 28 26 23 21 19 17 16 16 15 13 14 15 14 13
7 8 8 8 8 8 8 8 8 7 7 8 7 6 7 8 7 7 7 6 3 2 5 7 8 7 7 7 10 14 18 23 26 30 35 39 46 54 60 60 57 57 59 61 62 64 66 68 68 67 65 63 61 59 59 58 54 51 48 44 41 38 34 32 32 33 32 30 28 28 29 28 25 22 20 19 17 16 16 16 15 15 15 14 12
7 7 7 7 6 5 6 6 6 7 7 8 10 11 12 13 12 11 9 6 3 1 1 0 1 2 3 8 14 18 20 22 24 26 29 31 35 43 53 57 55 55 60 64 66 67 68 70 70 69 66 64 62 61 60 57 53 49 45 41 39 38 35 33 34 34 32 30 30 30 30 27 24 21 20 18 17 16 17 16 16 16 15 14 13
8 7 7 6 6 6 6 6 8 9 10 12 16 17 16 15 12 10 8 7 6 6 6 6 7 8 10 14 19 23 24 24 24 23 22 23 23 26 37 48 50 52 58 64 66 66 68 69 67 64 61 61 60 57 55 52 49 44 40 38 38 38 36 34 34 35 33 31 30 30 28 26 22 20 19 17 17 17 16 16 16 16 15 14 12
8 7 6 6 6 6 7 9 12 15 17 19 19 17 15 13 12 12 11 10 10 10 9 9 11 13 16 18 20 23 24 24 25 28 31 31 29 25 21 29 36 41 51 59 59 57 58 60 60 58 57 56 54 50 47 45 41 38 37 38 38 37 34 33 34 35 34 32 30 28 26 24 21 20 18 17 17 17 16 16 16 15 15 16 15
11 9 8 8 7 6 8 12 15 17 18 18 16 15 15 14 13 13 12 11 11 11 11 11 12 14 17 18 19 22 25 26 26 30 35 39 39 36 24 13 19 29 41 49 51 52 56 57 55 56 55 50 45 43 40 38 36 35 37 38 36 33 31 32 34 34 33 31 28 26 24 22 19 18 18 17 18 18 17 16 15 15 15 17 18
13 13 13 12 11 9 9 11 12 12 12 11 10 11 14 13 11 10 10 10 10 10 10 10 11 14 16 17 17 19 23 26 27 30 35 38 40 41 35 19 6 16 28 36 38 45 57 60 54 52 50 45 42 40 37 35 36 36 36 35 32 30 31 33 33 31 30 28 25 24 23 21 18 18 19 18 17 17 16 15 15 15 14 15 15
12 14 16 16 15 13 12 10 9 8 8 6 5 7 10 11 10 8 7 8 9 9 8 9 9 11 12 14 15 15 17 21 23 25 29 30 31 34 37 34 23 12 13 20 21 28 44 51 46 42 41 40 39 37 34 31 32 32 31 30 29 30 32 33 31 29 28 25 22 19 20 20 19 19 19 18 16 15 15 15 15 15 14 13 12
10 12 14 15 15 13 11 9 7 6 5 4 4 4 6 7 6 5 5 6 7 7 6 7 7 8 10 11 13 12 13 16 18 21 23 23 23 24 29 34 36 31 25 21 18 18 26 35 35 34 34 34 32 30 28 27 26 26 28 29 30 31 32 32 29 27 25 24 20 18 19 20 20 18 17 16 16 15 14 14 14 15 15 14 13
9 9 10 11 10 9 7 6 5 5 4 4 4 4 5 5 4 3 5 6 6 6 5 5 5 5 7 8 10 10 11 14 16 16 16 16 16 17 20 24 29 29 25 20 16 12 14 21 24 26 26 26 25 24 25 24 25 27 30 31 31 32 32 30 28 26 25 23 21 19 19 19 19 18 16 15 15 15 14 14 14 14 14 14 14
12 11 10 9 8 8 7 6 5 4 4 4 4 4 4 4 3 3 4 3 3 4 4 4 4 3 4 5 5 5 6 8 11 11 11 12 13 15 15 17 20 21 20 17 16 13 13 16 19 20 20 20 20 22 24 26 28 30 31 31 31 32 31 29 27 26 25 22 21 20 19 17 17 17 15 15 15 14 14 14 14 14 14 14 13
12 12 11 10 10 9 8 7 6 5 5 4 4 4 4 3 3 3 3 2 2 2 3 3 4 3 3 3 3 2 2 1 4 6 9 11 13 14 14 15 18 20 19 19 20 19 18 18 20 22 21 20 20 23 26 28 30 30 31 32 32 31 30 28 25 24 23 20 19 19 19 17 16 15 15 14 14 13 13 14 15 15 15 14 13
11 11 11 11 10 9 8 7 6 6 5 4 3 3 3 3 3 3 3 3 2 2 2 3 3 3 2 3 4 3 3 1 4 6 6 7 9 11 12 13 16 17 17 18 21 22 21 21 22 23 22 21 22 25 26 27 28 29 30 31 31 30 27 25 22 21 21 19 17 16 16 16 15 15 14 14 14 13 13 14 15 16 16 15 14
10 10 9 9 9 8 8 7 7 6 6 5 4 4 3 2 3 4 3 2 2 2 2 2 2 2 3 4 4 4 4 3 3 5 5 4 5 8 11 13 14 15 15 16 17 18 17 17 17 18 20 22 23 25 26 26 27 28 28 28 27 25 23 21 19 19 19 17 15 14 14 14 14 14 14 13 13 13 13 14 15 15 15 15 13
9 9 8 8 7 7 7 7 7 7 6 5 4 4 4 4 4 4 3 3 2 2 2 2 2 2 3 2 1 2 3 3 3 3 4 4 5 8 11 13 14 13 13 13 14 14 14 15 16 18 21 23 24 25 26 26 27 27 26 25 23 21 20 19 18 16 15 15 14 13 13 13 12 13 14 14 13 12 13 14 14 14 14 14 13
9 8 7 7 7 6 6 6 6 6 5 4 4 4 4 4 3 4 3 3 3 3 3 2 2 2 3 3 2 1 2 2 2 3 4 6 9 11 13 13 13 13 13 13 13 14 15 16 18 20 22 24 25 26 26 27 26 25 24 22 22 20 19 18 16 15 14 14 12 11 11 11 11 11 12 13 13 12 13 14 14 14 14 13 13
12 10 10 11 10 9 8 6 5 4 4 3 3 3 3 3 3 3 2 2 2 3 3 3 3 3 3 3 3 3 2 2 2 3 4 6 8 9 10 10 11 12 12 12 13 14 15 16 18 20 23 25 26 26 26 26 25 24 23 22 21 20 18 16 14 14 13 11 10 9 9 9 10 11 12 13 13 13 13 13 14 14 13 13 13
16 16 16 17 16 15 12 10 8 7 6 5 4 4 3 3 3 3 2 2 3 4 4 4 4 4 4 4 4 5 4 4 3 3 3 4 5 6 7 7 8 8 9 10 11 13 14 15 18 21 23 24 24 24 24 23 23 23 23 21 19 18 16 13 11 10 9 8 8 8 8 9 10 11 12 13 14 14 14 14 14 13 13 13 13
19 19 19 19 19 18 17 15 14 12 11 11 10 9 8 6 5 5 5 6 6 6 5 5 4 4 4 4 5 6 6 5 4 4 3 2 2 2 3 4 5 6 7 8 9 11 13 15 18 21 22 22 22 22 22 22 22 22 20 18 17 16 14 11 9 9 8 8 7 7 8 10 11 12 12 13 13 13 14 15 14 14 13 13 13
Wind_Direction
230 231 231 230 231 231 231 230 230 231 232 231 232 233 233 233 234 234 234 234 232 231 229 229 230 230 230 229 230 232 234 235 236 236 235 235 235 235 232 230 231 233 234 233 228 227 226 225 226 227 228 232 234 235 236 240 240 238 238 239 236 233 232 228 230 239 241 238 244 247 245 251 259 257 251 249 252 251 246 250 255 256 255 252 254
229 230 231 231 231 230 230 230 229 229 230 231 232 233 234 233 233 234 235 234 232 232 230 228 228 229 229 228 228 229 232 234 235 235 235 234 234 234 233 234 235 234 234 234 232 230 229 227 229 229 228 230 234 235 235 236 238 238 239 241 240 235 235 235 231 235 241 243 249 252 248 254 258 254 249 242 244 253 252 250 256 258 254 244 242
229 230 230 231 230 230 229 229 228 227 228 230 232 233 234 234 234 233 234 234 233 232 230 229 228 228 229 229 228 228 230 231 233 234 235 234 233 234 234 235 236 235 235 235 234 233 232 230 231 231 231 231 233 235 235 235 236 235 235 240 241 235 235 240 238 234 238 243 246 246 248 257 255 245 249 245 238 245 251 251 253 253 253 248 243
228 231 232 232 231 230 230 229 228 228 228 229 231 232 234 235 235 234 233 234 234 233 230 229 229 228 228 230 229 228 228 230 231 232 234 234 234 234 234 235 236 237 236 236 237 237 235 234 233 234 234 234 234 236 238 239 240 240 238 241 245 242 235 238 243 241 239 241 243 239 235 245 250 242 245 251 247 247 250 249 245 246 250 254 251
224 230 234 234 232 232 230 229 229 228 228 229 230 232 233 234 235 234 232 232 234 234 231 229 229 229 229 229 230 230 229 229 230 231 233 234 234 234 235 235 236 237 237 237 237 238 238 237 237 237 238 238 236 236 239 241 242 244 244 244 248 249 239 236 242 245 243 242 243 243 240 241 246 245 249 256 253 248 253 253 247 246 252 254 251
220 226 232 233 233 234 233 231 230 228 228 228 229 230 231 232 234 234 231 231 232 234 232 229 229 229 229 229 231 231 231 230 231 231 233 235 235 235 236 236 237 237 238 237 237 238 239 239 239 240 241 241 239 238 240 242 243 244 246 246 247 249 245 240 241 244 246 245 243 243 245 246 247 251 260 264 256 247 250 255 253 253 256 256 250
219 223 228 231 233 235 235 234 232 230 229 228 228 229 230 231 232 232 231 230 230 232 233 231 230 230 230 231 231 232 233 232 232 232 232 235 236 235 235 236 237 238 239 238 238 239 240 240 240 241 242 242 242 241 241 242 243 243 245 247 247 248 248 244 242 244 245 245 242 240 242 244 246 250 257 262 262 255 248 248 252 256 259 261 256
218 223 225 229 232 234 235 235 234 233 232 230 229 229 230 231 232 232 232 231 230 231 233 233 232 231 231 232 232 233 234 234 234 233 232 233 235 236 235 236 238 239 240 239 239 240 241 241 242 242 243 243 241 241 241 242 243 243 244 247 248 248 247 241 238 240 240 239 240 240 239 239 243 247 248 251 258 260 256 255 255 254 255 261 263
218 223 225 229 233 235 235 236 235 235 235 233 232 230 230 231 232 233 233 233 231 231 233 234 234 233 232 233 233 234 235 236 236 234 232 232 234 236 236 236 237 239 240 240 240 240 241 242 244 244 244 244 242 241 241 242 243 243 243 244 245 245 246 241 235 235 237 237 237 237 236 237 241 243 242 245 254 260 261 261 259 255 250 251 258
217 222 225 230 233 234 236 237 237 236 236 235 234 233 232 232 233 233 234 234 234 233 233 234 235 234 233 233 234 234 235 236 237 236 235 234 234 236 237 237 237 238 240 241 241 241 241 242 244 245 245 246 245 243 242 243 244 243 242 242 241 242 244 243 237 234 234 236 236 236 235 235 238 240 240 245 252 255 254 253 255 253 248 249 254
217 223 227 229 231 233 236 238 238 237 237 236 236 235 234 234 234 235 236 236 236 235 235 235 236 236 235 234 234 235 236 237 238 238 237 236 235 236 237 238 238 238 240 242 242 242 242 242 243 245 245 245 245 244 242 242 243 240 239 240 241 241 241 241 237 233 234 236 236 236 235 236 238 239 240 244 246 248 250 250 251 249 247 251 258
220 226 228 229 231 234 237 237 238 238 238 238 237 237 236 236 236 236 237 238 237 237 237 237 236 237 237 236 236 236 237 238 239 240 239 237 237 237 238 239 240 240 240 242 243 244 244 243 243 243 244 243 242 243 242 241 241 239 237 238 241 242 241 238 233 231 233 236 238 237 237 238 240 239 241 244 243 245 248 249 250 251 249 249 253
221 226 228 229 232 235 237 237 238 239 239 239 239 238 238 237 237 238 239 239 239 239 239 239 239 238 239 238 238 237 238 239 240 241 240 239 238 238 239 240 241 241 242 243 244 244 244 244 243 243 243 242 240 241 241 239 238 237 235 236 238 240 240 239 236 233 231 233 237 239 239 238 241 243 244 245 243 244 248 251 253 253 250 250 255
219 226 230 231 234 236 237 238 239 239 240 240 239 240 240 239 239 239 239 240 241 241 241 242 241 240 240 240 239 239 240 240 241 241 241 241 240 240 240 241 242 243 244 244 244 245 245 245 244 243 243 242 239 239 239 238 236 235 234 234 236 239 239 239 240 238 235 233 233 235 237 239 242 245 248 249 246 244 248 253 252 250 250 256 265
217 226 232 234 235 236 236 238 239 239 240 240 239 240 241 241 241 240 239 240 241 243 244 244 244 243 242 242 242 241 240 241 242 243 242 242 242 242 241 242 243 244 245 245 245 245 246 245 245 244 243 242 239 236 237 237 236 235 234 234 236 238 239 239 240 241 240 239 238 237 239 242 246 247 249 250 247 246 250 253 254 256 257 260 265
219 226 232 235 235 234 235 236 237 237 238 238 239 240 241 242 242 241 240 240 241 243 244 245 245 245 245 244 244 243 242 241 242 243 243 243 243 243 242 242 242 243 244 245 245 245 245 244 243 243 242 241 239 235 234 235 236 236 235 234 234 234 236 239 240 240 241 241 240 239 238 241 244 243 243 245 248 253 257 256 259 263 262 257 256
224 228 233 236 236 235 235 235 236 236 235 236 238 240 241 243 243 242 241 240 241 242 244 245 246 246 246 245 244 244 243 242 242 242 243 243 242 242 241 241 241 241 242 244 245 245 244 241 240 240 240 240 238 235 232 232 233 234 231 229 231 230 230 237 240 238 238 239 238 237 236 238 240 240 241 245 251 256 256 255 258 259 252 245 249
229 230 233 235 236 237 236 235 235 236 236 238 241 242 242 243 243 243 243 242 241 242 243 245 246 246 247 246 244 245 245 244 243 242 241 241 241 241 241 241 241 241 242 243 243 242 241 240 239 238 238 239 238 234 230 228 229 229 226 224 227 224 219 230 239 238 235 237 238 236 236 238 241 242 244 247 251 255 256 252 248 246 239 241 254
230 230 232 234 236 237 237 237 238 239 240 242 243 243 243 243 244 245 245 245 244 241 240 243 245 247 248 248 247 247 246 246 245 244 242 241 240 240 240 241 241 241 241 240 239 237 239 240 240 237 236 237 237 233 228 225 224 225 223 222 224 220 214 223 235 238 235 234 235 236 237 239 240 241 245 248 252 254 250 234 223 230 240 250 260
232 233 233 234 236 238 239 240 242 242 242 243 244 244 244 245 245 246 247 246 244 242 240 242 245 247 248 248 249 250 249 248 248 248 246 244 241 241 240 239 240 240 239 238 237 236 236 236 238 238 234 234 235 232 225 222 222 222 221 219 219 217 211 212 224 232 234 230 230 233 235 235 236 239 243 246 244 236 221 211 214 230 243 251 256
235 237 236 235 237 239 241 244 244 243 243 244 244 244 245 245 245 246 246 244 243 244 243 242 242 243 244 245 248 251 251 252 252 252 250 247 243 242 241 239 239 239 239 239 238 236 233 231 235 237 234 231 231 229 223 219 219 221 222 219 216 212 205 207 220 229 227 220 219 223 224 226 228 229 229 227 219 207 202 207 216 231 240 244 244
239 240 239 238 238 240 242 243 244 243 244 244 244 244 244 244 244 244 243 240 241 244 244 241 239 238 239 241 245 247 249 250 252 254 254 250 247 245 243 241 239 238 238 239 238 236 233 231 233 236 234 230 228 225 220 217 216 219 221 218 212 209 204 205 218 223 214 203 206 207 207 209 210 208 206 205 203 200 200 209 218 223 227 227 227
239 242 242 240 238 240 241 242 243 244 244 244 245 245 245 244 243 242 242 239 238 241 242 241 239 238 239 242 244 245 246 247 248 252 255 254 253 251 249 247 245 242 240 239 238 237 236 234 235 238 235 230 226 222 216 214 214 216 217 214 211 211 206 203 213 216 203 195 201 200 203 203 195 199 206 204 203 201 195 206 220 215 209 219 232
235 240 243 241 238 239 240 242 245 246 247 247 247 246 245 244 242 242 243 240 236 236 238 238 239 240 241 244 245 245 245 245 245 249 254 254 255 255 252 251 250 247 243 240 237 237 237 235 236 239 236 228 222 218 214 212 212 212 213 212 211 212 208 203 211 211 196 193 199 197 198 198 194 203 207 198 201 211 203 200 209 209 208 224 238
230 233 235 235 234 235 237 240 245 247 246 246 246 245 244 243 242 243 243 241 236 235 237 237 237 240 242 242 243 243 243 242 243 248 252 253 254 255 253 252 252 248 243 241 236 233 233 233 234 238 235 224 216 212 210 210 210 209 210 208 207 210 208 205 210 208 192 191 198 193 193 197 195 202 205 196 200 210 204 196 202 210 217 231 242
223 225 228 229 229 229 232 236 242 245 245 244 245 246 245 243 242 243 243 241 237 237 238 236 236 242 244 243 243 243 243 243 243 248 252 252 253 256 255 254 253 249 245 244 240 232 229 230 232 233 228 217 210 208 207 207 206 205 204 204 205 209 207 204 208 206 193 189 191 188 192 197 195 200 210 208 204 203 200 199 204 209 217 233 247
213 215 218 222 224 224 225 227 231 237 240 239 236 239 241 237 236 238 239 238 235 236 238 237 237 241 245 246 247 248 247 247 245 247 250 252 255 257 256 255 253 248 244 244 240 233 228 227 229 227 219 210 206 207 207 206 203 200 199 200 203 206 206 205 208 206 196 188 185 184 188 194 198 204 211 210 204 199 200 203 203 204 218 235 245
193 199 202 205 211 213 215 219 220 221 227 228 224 226 231 231 230 233 237 237 234 234 237 238 239 242 245 248 252 253 252 252 250 249 253 258 261 262 260 257 254 248 243 242 239 234 228 225 224 222 214 205 203 205 205 203 200 199 199 198 198 201 203 202 202 201 194 185 180 181 185 194 202 204 201 198 198 200 204 206 203 203 216 232 244
170 177 180 185 196 199 201 211 213 210 215 221 219 220 224 226 227 231 235 236 234 235 239 242 244 246 248 249 252 253 254 256 256 255 259 264 267 267 266 264 261 256 251 246 239 233 228 223 221 219 213 206 203 202 200 197 195 196 198 198 197 198 200 197 194 194 190 183 180 183 188 198 206 202 194 195 198 199 204 209 210 209 213 224 240
150 154 160 166 178 181 182 195 205 205 208 215 223 227 227 225 226 228 233 237 238 240 244 248 250 252 254 254 256 257 260 263 265 263 264 267 269 269 269 269 269 267 262 252 239 231 228 224 219 218 216 210 205 200 196 192 191 193 195 197 198 201 202 198 193 192 189 184 182 184 190 202 207 200 193 195 196 195 204 211 214 219 225 230 240
159 167 175 181 182 177 174 174 181 194 198 200 212 227 234 235 234 234 237 242 244 246 250 254 256 258 260 261 263 264 265 268 269 268 267 266 266 267 268 268 267 266 263 254 238 228 226 223 218 216 216 212 205 199 193 191 192 194 195 196 199 203 205 200 193 192 192 188 186 185 188 196 201 198 194 193 191 195 210 218 218 224 232 235 237
180 183 189 197 198 196 195 191 188 196 198 198 205 214 220 233 243 242 241 244 248 253 258 262 266 268 270 272 273 273 272 272 271 269 267 264 263 263 265 265 264 262 261 255 239 225 221 220 218 216 215 211 204 198 193 193 195 196 196 197 200 203 204 199 194 194 195 191 188 188 188 191 195 197 195 192 190 196 211 220 220 224 232 234 234
177 185 193 198 201 205 207 205 206 207 200 198 204 206 202 213 235 244 238 237 245 254 263 271 275 277 276 276 278 279 280 279 276 272 268 264 262 261 260 260 260 258 255 249 236 221 214 215 216 216 213 208 201 196 194 194 194 195 196 199 201 202 199 195 193 194 194 193 192 192 191 192 194 194 193 193 193 199 210 218 220 223 229 232 232
157 170 178 178 180 184 185 186 190 189 181 175 174 171 170 172 165 141 123 119 133 248 274 279 277 272 274 292 310 313 307 301 296 289 281 273 266 261 258 257 258 257 252 245 234 219 209 208 211 212 208 202 196 195 195 194 193 194 195 196 198 199 195 192 191 193 195 197 194 192 193 194 194 192 191 193 198 205 213 218 221 224 227 228 229
115 134 140 129 118 125 135 139 141 142 141 143 144 143 142 139 134 129 127 124 116 92 24 356 90 76 20 359 359 355 343 331 321 311 301 292 280 267 258 253 251 250 246 239 230 219 210 207 207 205 200 195 191 190 190 190 190 191 191 190 193 196 195 194 195 197 199 197 191 190 194 195 193 193 194 196 202 210 214 217 221 223 223 224 226
86 93 101 100 97 101 109 117 123 124 126 131 133 133 132 130 126 122 121 118 111 104 100 92 75 46 20 13 15 13 7 2 0 359 348 334 319 294 270 257 250 246 241 232 223 215 208 204 201 197 192 187 184 182 183 185 188 188 185 185 190 193 193 194 197 201 203 197 189 190 196 195 193 195 197 201 209 212 212 216 220 220 220 221 221
84 85 88 93 98 103 109 116 122 127 131 133 133 131 129 128 125 122 119 115 112 105 92 77 62 43 29 25 24 22 21 19 20 22 19 12 8 359 316 274 259 251 240 227 216 207 200 195 192 188 184 180 177 178 182 185 185 183 181 184 189 192 193 196 200 201 201 197 190 192 197 196 195 198 202 206 213 212 209 213 217 216 218 220 218
88 97 105 104 97 98 112 121 125 128 129 129 131 132 130 128 125 123 121 118 113 104 91 75 58 41 34 33 30 29 31 31 28 29 28 27 30 30 16 319 266 250 236 223 212 200 190 185 183 179 177 176 175 178 182 183 181 181 182 185 189 193 195 199 201 200 197 194 193 196 199 198 198 204 208 211 212 207 204 210 214 213 216 222 224
83 92 101 104 101 99 106 113 117 118 118 119 123 128 130 130 127 125 126 126 119 108 97 84 60 40 39 41 33 33 43 46 45 45 41 38 41 46 45 37 323 249 228 217 206 189 176 172 172 171 170 172 174 175 177 180 181 182 184 187 190 194 197 200 201 197 194 194 197 202 206 205 204 208 209 207 205 204 204 208 212 212 214 220 223
78 83 87 90 92 92 91 94 100 103 107 111 113 121 133 139 136 132 136 136 126 113 104 92 64 43 45 46 38 41 53 53 52 57 55 48 48 54 57 59 60 79 148 165 163 152 149 153 159 165 168 170 169 167 170 176 181 184 187 190 192 193 195 198 198 195 194 197 200 204 206 204 202 203 204 202 202 205 206 208 210 211 212 214 213
78 82 83 84 86 87 87 92 100 101 103 108 106 113 130 134 127 126 137 138 129 119 112 101 77 52 49 52 48 50 58 57 60 67 67 61 59 59 62 69 74 79 93 111 116 123 140 150 155 159 160 159 157 160 167 175 181 186 189 191 191 192 194 196 195 194 195 198 199 200 200 198 198 199 201 202 204 204 204 206 208 209 211 214 215
77 81 85 87 90 91 91 93 95 91 92 95 100 115 126 119 111 132 152 151 144 136 124 110 91 63 52 55 54 53 61 74 81 79 65 58 68 73 72 78 86 88 91 99 103 115 145 149 143 140 143 146 152 164 174 179 184 188 191 190 190 191 194 194 193 196 200 201 201 201 199 199 202 203 201 202 203 202 202 206 208 210 213 215 216
76 77 79 80 81 83 83 82 83 85 86 91 99 112 119 117 120 141 155 155 145 138 131 127 121 97 61 57 55 48 56 85 102 97 76 71 89 99 96 97 106 111 116 121 125 132 141 138 133 137 146 155 166 177 182 184 187 188 189 189 189 191 194 194 196 201 205 204 205 206 203 200 203 204 200 199 201 202 205 208 209 212 214 215 215
72 74 76 76 74 74 73 74 78 80 75 80 94 100 100 106 120 128 128 111 86 95 106 107 107 97 64 44 39 17 10 87 135 123 97 94 110 121 120 119 125 132 136 139 143 151 158 158 156 160 165 171 179 184 184 185 187 187 187 188 189 191 195 198 201 206 207 204 205 208 206 201 201 201 199 200 201 203 207 211 212 213 215 215 216
67 67 69 70 70 69 66 65 70 72 67 68 86 95 96 106 108 103 107 106 93 87 88 79 74 70 56 51 52 42 33 87 155 152 129 116 131 149 155 148 142 143 147 149 152 160 168 170 167 168 171 177 182 183 181 182 184 186 187 189 191 194 199 202 205 209 208 202 199 203 202 199 200 201 200 202 206 207 209 213 215 214 215 216 216
61 60 60 61 62 62 63 62 62 61 58 60 69 72 74 88 93 88 90 103 107 103 99 90 81 76 60 50 58 71 70 74 109 138 150 159 172 177 173 159 143 139 146 154 157 160 165 167 167 170 173 175 176 176 177 180 184 187 189 192 195 198 202 204 205 206 204 197 193 195 197 197 200 203 202 203 207 210 211 215 216 214 215 217 217
53 52 52 54 52 48 47 49 50 51 52 55 61 61 57 58 67 70 74 89 106 106 87 79 85 83 65 48 56 98 105 93 78 84 102 123 140 147 146 140 136 137 144 151 155 156 159 162 165 168 171 172 172 174 176 180 184 188 191 194 196 197 199 200 197 196 194 189 186 189 196 198 202 206 207 207 209 212 213 215 215 214 215 219 219
52 50 50 53 56 54 48 41 36 39 41 39 43 55 59 57 61 72 80 87 93 89 75 72 81 72 61 66 83 121 159 152 119 86 86 108 130 143 145 143 144 149 152 154 156 156 157 161 166 170 173 173 173 174 178 182 186 189 190 192 193 194 194 192 187 182 183 183 182 186 194 200 204 208 211 211 213 217 217 217 218 219 220 223 223
59 58 58 59 60 61 61 59 56 52 43 32 32 47 52 55 70 92 104 116 117 105 86 69 64 52 42 51 71 76 79 97 99 98 107 120 134 149 156 154 154 158 162 164 163 161 161 164 169 173 175 175 175 178 183 186 188 190 191 194 195 194 190 187 184 181 183 184 185 188 197 204 208 213 216 215 217 219 221 221 222 223 223 224 224
66 65 65 65 63 61 61 64 71 73 70 68 70 73 71 79 106 122 126 126 125 116 96 78 73 66 53 51 64 68 69 72 71 66 79 109 128 142 151 155 161 169 174 174 173 173 171 169 169 173 177 180 182 186 190 191 192 195 197 199 197 193 190 191 191 189 189 190 193 199 207 211 212 214 216 217 218 220 222 223 224 225 223 221 219
68 68 68 67 66 66 64 63 65 69 73 76 76 76 79 89 111 133 138 132 128 121 114 117 119 100 71 60 62 61 59 60 57 45 35 35 65 115 146 160 171 177 177 178 181 183 181 176 174 178 182 186 189 191 193 195 198 201 204 203 199 195 196 200 201 199 199 203 206 211 214 215 214 214 215 216 218 221 224 225 224 222 221 220 216
Height
1488 1490 1493 1497 1500 1503 1506 1509 1512 1515 1517 1519 1521 1523 1526 1528 1530 1532 1534 1535 1537 1538 1540 1541 1543 1544 1546 1547 1549 1550 1552 1553 1554 1556 1557 1558 1559 1561 1562 1562 1562 1563 1565 1566 1566 1567 1568 1569 1569 1570 1571 1572 1572 1573 1574 1574 1575 1576 1577 1577 1578 1579 1579 1580 1581 1581 1582 1582 1582 1583 1583 1582 1582 1582 1582 1582 1582 1582 1583 1583 1582 1582 1583 1583 1583
1482 1485 1488 1491 1494 1497 1501 1504 1507 1510 1513 1515 1517 1519 1522 1524 1527 1528 1530 1532 1533 1535 1536 1538 1539 1541 1542 1544 1545 1547 1548 1549 1551 1552 1554 1555 1556 1558 1559 1559 1560 1561 1562 1563 1564 1565 1565 1566 1567 1568 1569 1569 1570 1571 1572 1572 1573 1573 1574 1575 1576 1577 1577 1578 1578 1579 1580 1580 1579 1580 1580 1580 1580 1580 1580 1581 1581 1580 1580 1581 1581 1581 1581 1582 1582
1477 1480 1483 1486 1489 1492 1496 1499 1502 1505 1508 1510 1512 1515 1517 1520 1522 1524 1526 1528 1529 1531 1532 1534 1535 1537 1538 1540 1541 1543 1544 1546 1548 1549 1550 1552 1553 1554 1555 1556 1557 1558 1559 1560 1561 1562 1563 1564 1564 1565 1566 1567 1568 1569 1570 1570 1571 1571 1572 1572 1573 1574 1575 1575 1576 1577 1578 1578 1578 1578 1578 1578 1578 1578 1578 1579 1579 1579 1579 1579 1579 1579 1579 1579 1580
1472 1475 1477 1481 1484 1488 1491 1494 1497 1500 1503 1506 1508 1511 1513 1515 1517 1519 1522 1524 1525 1526 1528 1530 1531 1532 1534 1536 1537 1539 1540 1542 1544 1546 1547 1549 1550 1551 1552 1553 1554 1555 1556 1557 1558 1559 1560 1561 1562 1563 1564 1564 1565 1566 1567 1568 1568 1569 1569 1570 1570 1572 1573 1573 1573 1574 1575 1576 1576 1576 1576 1576 1576 1576 1577 1577 1577 1577 1577 1577 1577 1577 1577 1577 1578
1467 1469 1472 1476 1480 1482 1485 1489 1492 1495 1498 1501 1503 1506 1509 1511 1513 1515 1517 1519 1520 1522 1524 1526 1527 1528 1529 1531 1533 1535 1537 1538 1540 1542 1543 1545 1547 1548 1549 1550 1551 1552 1553 1554 1555 1556 1557 1558 1559 1560 1561 1561 1562 1563 1564 1565 1566 1566 1567 1567 1568 1569 1570 1571 1571 1572 1573 1574 1574 1574 1574 1574 1574 1574 1574 1574 1575 1575 1575 1575 1575 1575 1575 1575 1575
1462 1464 1468 1471 1474 1477 1480 1483 1486 1489 1493 1496 1499 1502 1504 1506 1508 1509 1512 1514 1516 1518 1519 1521 1522 1523 1525 1527 1529 1531 1533 1535 1536 1538 1540 1541 1543 1544 1545 1546 1547 1548 1550 1551 1552 1553 1554 1555 1556 1557 1557 1558 1559 1560 1561 1562 1563 1563 1564 1565 1566 1566 1567 1568 1569 1569 1570 1571 1572 1572 1572 1572 1572 1572 1572 1572 1572 1573 1573 1572 1572 1572 1571 1572 1572
1457 1459 1462 1465 1468 1471 1474 1478 1481 1484 1487 1491 1494 1497 1499 1501 1503 1505 1507 1509 1511 1513 1514 1516 1518 1519 1521 1523 1525 1527 1529 1531 1532 1534 1536 1537 1539 1540 1542 1543 1544 1545 1546 1547 1548 1549 1550 1552 1553 1553 1554 1555 1556 1557 1558 1559 1560 1560 1561 1562 1563 1564 1564 1565 1566 1567 1567 1568 1568 1569 1569 1569 1569 1569 1569 1569 1570 1570 1571 1571 1570 1569 1569 1568 1569
1452 1454 1457 1460 1462 1465 1469 1473 1476 1480 1483 1486 1489 1492 1494 1496 1498 1500 1502 1504 1506 1508 1510 1512 1514 1516 1518 1520 1522 1524 1525 1527 1528 1530 1532 1533 1534 1536 1538 1539 1540 1541 1542 1543 1545 1545 1546 1548 1549 1550 1550 1551 1553 1554 1555 1556 1556 1557 1558 1559 1560 1561 1561 1563 1563 1564 1564 1565 1565 1566 1566 1566 1566 1566 1566 1566 1567 1567 1568 1568 1568 1568 1567 1566 1566
1447 1450 1452 1454 1456 1459 1464 1468 1472 1475 1478 1480 1483 1486 1488 1491 1493 1495 1497 1499 1502 1504 1506 1508 1510 1512 1514 1516 1518 1519 1521 1522 1523 1525 1527 1529 1530 1532 1534 1535 1536 1537 1538 1539 1541 1541 1542 1544 1545 1546 1546 1547 1549 1551 1552 1552 1553 1554 1555 1556 1557 1557 1558 1559 1560 1561 1561 1562 1562 1562 1563 1563 1562 1562 1563 1563 1563 1564 1565 1565 1565 1565 1566 1565 1563
1443 1446 1448 1449 1452 1456 1459 1463 1466 1469 1472 1474 1477 1480 1483 1486 1488 1490 1492 1494 1497 1499 1502 1504 1506 1507 1509 1511 1513 1515 1516 1517 1518 1520 1522 1525 1526 1528 1529 1531 1532 1533 1534 1535 1536 1537 1538 1540 1541 1542 1543 1544 1546 1547 1548 1549 1550 1551 1552 1553 1554 1554 1555 1556 1556 1557 1558 1558 1558 1559 1559 1559 1559 1559 1559 1559 1560 1561 1562 1562 1562 1563 1563 1562 1561
1439 1441 1443 1446 1449 1452 1455 1458 1460 1463 1466 1469 1472 1475 1478 1481 1483 1485 1487 1489 1492 1495 1497 1499 1501 1503 1504 1506 1508 1509 1510 1512 1513 1515 1518 1520 1522 1524 1525 1527 1528 1529 1530 1531 1532 1533 1534 1536 1537 1538 1539 1540 1542 1543 1545 1546 1546 1548 1549 1549 1550 1551 1551 1552 1553 1553 1554 1554 1555 1556 1556 1555 1556 1556 1556 1556 1557 1558 1559 1559 1559 1560 1560 1559 1559
1434 1436 1439 1442 1444 1447 1450 1453 1455 1458 1461 1463 1467 1470 1474 1476 1478 1480 1482 1484 1487 1489 1491 1493 1496 1498 1499 1501 1503 1504 1505 1506 1508 1510 1513 1515 1518 1520 1521 1522 1523 1524 1525 1526 1528 1529 1530 1532 1533 1534 1534 1536 1538 1539 1541 1542 1543 1544 1545 1546 1546 1547 1547 1548 1549 1550 1551 1551 1551 1552 1552 1553 1553 1553 1553 1554 1554 1555 1555 1556 1556 1556 1557 1556 1556
1431 1433 1435 1438 1440 1443 1447 1449 1451 1453 1455 1458 1462 1466 1469 1471 1473 1475 1477 1480 1482 1484 1486 1488 1490 1492 1494 1496 1498 1499 1500 1501 1502 1505 1507 1510 1513 1515 1517 1518 1519 1520 1521 1522 1523 1525 1526 1527 1528 1529 1530 1532 1534 1535 1536 1538 1539 1540 1541 1542 1542 1542 1542 1543 1544 1545 1546 1547 1548 1549 1550 1550 1550 1550 1550 1550 1551 1551 1552 1553 1553 1553 1553 1553 1553
1429 1430 1432 1434 1437 1440 1443 1445 1447 1449 1452 1455 1458 1461 1463 1466 1468 1471 1473 1475 1477 1478 1481 1483 1485 1487 1489 1490 1492 1494 1495 1495 1497 1499 1502 1505 1508 1510 1512 1514 1515 1515 1516 1517 1519 1520 1521 1522 1524 1524 1526 1527 1529 1531 1532 1533 1535 1536 1537 1537 1537 1537 1538 1539 1539 1540 1541 1542 1543 1544 1546 1547 1547 1547 1548 1548 1548 1549 1549 1550 1550 1550 1550 1550 1550
1425 1426 1427 1429 1432 1435 1438 1440 1443 1446 1449 1452 1454 1457 1459 1461 1464 1467 1469 1471 1472 1474 1476 1479 1480 1482 1484 1485 1487 1488 1489 1491 1492 1494 1497 1500 1503 1506 1508 1509 1510 1511 1511 1512 1513 1515 1516 1517 1519 1520 1521 1522 1524 1526 1528 1529 1530 1531 1532 1533 1533 1533 1533 1534 1535 1536 1537 1538 1539 1540 1542 1543 1544 1544 1545 1545 1545 1546 1546 1547 1547 1547 1547 1548 1547
1421 1422 1422 1424 1427 1429 1432 1436 1438 1442 1445 1447 1450 1452 1454 1456 1459 1462 1465 1467 1468 1470 1471 1473 1475 1476 1478 1480 1481 1482 1484 1485 1486 1488 1492 1495 1498 1501 1502 1503 1504 1504 1505 1506 1508 1510 1510 1511 1512 1514 1515 1516 1518 1521 1524 1525 1526 1527 1527 1528 1528 1528 1529 1530 1531 1533 1534 1534 1535 1537 1538 1540 1540 1541 1541 1542 1542 1543 1543 1544 1544 1545 1545 1545 1544
1415 1416 1417 1419 1422 1425 1429 1432 1434 1437 1440 1442 1444 1446 1449 1451 1454 1457 1459 1462 1463 1465 1466 1467 1469 1471 1472 1474 1475 1476 1477 1479 1481 1483 1486 1489 1492 1494 1495 1496 1497 1498 1499 1501 1502 1504 1504 1505 1506 1508 1509 1510 1512 1516 1519 1520 1521 1522 1523 1524 1524 1525 1526 1526 1527 1529 1530 1531 1532 1533 1535 1536 1536 1537 1538 1538 1539 1540 1540 1541 1542 1542 1543 1543 1542
1409 1410 1413 1416 1419 1422 1425 1428 1431 1433 1435 1437 1439 1442 1444 1447 1450 1452 1454 1457 1459 1460 1462 1463 1464 1465 1466 1467 1468 1470 1471 1473 1474 1476 1479 1482 1484 1486 1488 1490 1491 1492 1494 1495 1497 1497 1497 1498 1499 1501 1503 1504 1506 1510 1514 1515 1516 1517 1518 1520 1521 1522 1523 1523 1523 1524 1526 1528 1529 1530 1531 1532 1533 1534 1535 1535 1536 1536 1537 1539 1540 1541 1541 1542 1542
1404 1407 1410 1413 1416 1419 1422 1425 1427 1430 1431 1433 1436 1439 1441 1444 1446 1448 1450 1452 1454 1457 1458 1459 1460 1460 1461 1462 1463 1464 1465 1466 1467 1469 1472 1475 1478 1480 1482 1483 1484 1486 1488 1489 1490 1491 1491 1492 1493 1495 1498 1499 1501 1505 1508 1510 1511 1512 1514 1516 1517 1518 1519 1519 1519 1520 1523 1524 1526 1527 1528 1529 1530 1531 1531 1532 1532 1533 1534 1536 1538 1540 1540 1541 1541
1403 1406 1409 1412 1414 1416 1418 1421 1424 1426 1428 1430 1433 1435 1438 1440 1442 1444 1445 1447 1449 1451 1453 1454 1455 1455 1457 1458 1458 1459 1460 1461 1462 1463 1466 1469 1472 1474 1475 1476 1477 1479 1480 1482 1483 1483 1485 1485 1486 1488 1492 1493 1495 1499 1502 1504 1506 1508 1509 1511 1512 1514 1516 1517 1516 1517 1519 1521 1522 1524 1525 1526 1527 1528 1528 1529 1529 1530 1531 1533 1536 1538 1539 1540 1540
1402 1404 1407 1409 1411 1413 1415 1418 1420 1422 1425 1427 1430 1432 1433 1435 1437 1439 1441 1443 1445 1446 1447 1449 1450 1451 1453 1454 1454 1454 1455 1456 1457 1458 1460 1462 1465 1468 1468 1468 1470 1472 1473 1474 1475 1476 1477 1479 1479 1481 1485 1487 1489 1493 1497 1499 1501 1502 1504 1506 1508 1511 1513 1513 1513 1514 1516 1518 1519 1521 1522 1523 1524 1525 1526 1526 1527 1527 1528 1531 1534 1537 1538 1539 1538
1399 1402 1404 1407 1409 1411 1413 1415 1417 1419 1422 1424 1426 1428 1430 1432 1434 1435 1437 1440 1441 1442 1443 1445 1446 1448 1449 1449 1450 1450 1451 1453 1453 1453 1453 1455 1458 1460 1461 1462 1464 1466 1466 1467 1467 1468 1470 1471 1472 1474 1478 1481 1484 1487 1491 1494 1496 1497 1499 1502 1505 1507 1509 1509 1509 1511 1514 1515 1516 1518 1519 1520 1522 1523 1524 1525 1525 1526 1527 1529 1532 1534 1535 1536 1535
1397 1399 1402 1404 1406 1408 1410 1412 1414 1416 1419 1421 1423 1426 1428 1430 1431 1432 1434 1437 1439 1440 1441 1442 1443 1444 1445 1446 1447 1447 1448 1450 1449 1448 1448 1449 1451 1453 1455 1458 1460 1462 1461 1460 1460 1461 1463 1465 1466 1468 1471 1475 1478 1482 1485 1488 1490 1492 1495 1498 1500 1502 1505 1506 1505 1507 1510 1512 1513 1515 1517 1518 1520 1522 1523 1524 1524 1524 1525 1528 1530 1530 1532 1532 1531
1395 1397 1399 1401 1404 1406 1408 1409 1411 1413 1416 1418 1420 1423 1424 1426 1428 1429 1431 1434 1437 1438 1438 1440 1440 1441 1441 1442 1443 1444 1444 1445 1444 1442 1442 1443 1445 1447 1450 1453 1456 1457 1457 1457 1457 1458 1459 1460 1460 1462 1466 1470 1473 1477 1480 1483 1485 1487 1489 1493 1495 1498 1501 1502 1501 1503 1506 1508 1510 1512 1514 1515 1518 1520 1520 1522 1522 1522 1522 1525 1526 1527 1528 1529 1528
1394 1396 1397 1399 1401 1404 1405 1407 1408 1410 1413 1415 1416 1419 1421 1422 1424 1426 1428 1431 1433 1433 1434 1435 1436 1436 1437 1437 1439 1439 1440 1440 1439 1437 1436 1437 1439 1440 1443 1446 1448 1449 1450 1452 1454 1455 1456 1456 1456 1457 1462 1466 1469 1473 1475 1478 1480 1482 1484 1488 1491 1493 1496 1497 1497 1498 1502 1504 1506 1509 1511 1513 1516 1518 1518 1519 1520 1518 1518 1520 1522 1524 1525 1526 1526
1392 1394 1396 1397 1399 1401 1403 1404 1406 1408 1410 1412 1413 1415 1417 1419 1421 1422 1424 1426 1428 1429 1430 1432 1432 1433 1433 1433 1434 1435 1435 1435 1434 1433 1432 1432 1433 1433 1435 1437 1439 1442 1443 1445 1449 1452 1453 1452 1452 1454 1458 1462 1465 1467 1470 1473 1475 1478 1481 1484 1486 1488 1490 1491 1492 1494 1497 1500 1502 1505 1508 1510 1513 1515 1516 1516 1515 1514 1515 1517 1520 1521 1523 1524 1524
1391 1392 1394 1396 1397 1399 1401 1402 1404 1406 1407 1409 1411 1413 1414 1416 1417 1419 1420 1422 1424 1426 1427 1428 1428 1429 1430 1430 1430 1431 1431 1431 1430 1429 1427 1426 1427 1429 1430 1432 1435 1437 1438 1439 1442 1446 1448 1447 1448 1450 1453 1457 1460 1463 1467 1469 1472 1474 1477 1479 1482 1484 1485 1487 1489 1491 1493 1495 1498 1501 1504 1507 1509 1511 1512 1512 1512 1512 1513 1515 1517 1519 1521 1523 1523
1389 1391 1393 1394 1396 1397 1399 1400 1402 1404 1406 1407 1410 1411 1412 1414 1415 1416 1417 1418 1420 1422 1424 1425 1425 1426 1427 1427 1427 1427 1427 1426 1426 1426 1424 1422 1424 1426 1427 1428 1429 1431 1431 1432 1435 1439 1441 1442 1444 1446 1448 1450 1454 1457 1461 1463 1466 1469 1472 1475 1478 1480 1482 1484 1487 1489 1490 1492 1494 1497 1500 1502 1504 1506 1508 1509 1510 1510 1510 1512 1514 1517 1519 1520 1521
1389 1390 1392 1394 1395 1396 1397 1399 1401 1403 1405 1406 1407 1409 1410 1411 1413 1414 1415 1416 1417 1419 1421 1422 1423 1423 1423 1424 1423 1423 1422 1422 1422 1423 1421 1419 1419 1420 1421 1422 1423 1424 1426 1429 1433 1435 1436 1436 1438 1440 1442 1443 1445 1449 1453 1457 1461 1465 1469 1472 1475 1476 1478 1481 1484 1487 1487 1489 1490 1492 1495 1498 1501 1503 1505 1507 1507 1507 1508 1510 1511 1514 1516 1517 1518
1388 1390 1391 1393 1393 1394 1396 1399 1400 1401 1403 1405 1406 1406 1406 1409 1411 1412 1413 1413 1415 1417 1419 1419 1420 1420 1420 1419 1419 1418 1417 1417 1418 1419 1418 1416 1414 1414 1415 1415 1417 1419 1421 1424 1427 1428 1428 1430 1432 1435 1437 1437 1438 1441 1446 1450 1454 1459 1464 1468 1471 1471 1472 1476 1480 1484 1485 1486 1486 1487 1490 1494 1498 1500 1502 1504 1504 1505 1506 1507 1509 1510 1512 1514 1515
1387 1387 1388 1389 1390 1392 1394 1396 1398 1399 1401 1403 1404 1404 1405 1407 1409 1410 1411 1411 1413 1415 1416 1416 1417 1417 1416 1415 1414 1413 1412 1412 1412 1413 1413 1412 1410 1409 1409 1409 1410 1412 1413 1415 1416 1416 1418 1422 1425 1428 1431 1431 1430 1432 1436 1441 1446 1451 1457 1463 1466 1467 1467 1469 1474 1480 1483 1483 1483 1484 1486 1491 1495 1498 1499 1501 1502 1503 1504 1505 1507 1508 1509 1511 1512
1386 1386 1387 1388 1389 1390 1391 1393 1395 1396 1398 1400 1402 1403 1404 1406 1407 1407 1408 1410 1411 1412 1413 1413 1412 1412 1412 1411 1409 1408 1407 1407 1406 1405 1405 1404 1403 1402 1401 1400 1400 1402 1405 1406 1405 1404 1407 1413 1417 1420 1422 1423 1423 1425 1427 1431 1436 1441 1449 1456 1461 1463 1463 1464 1468 1474 1478 1480 1480 1480 1483 1489 1493 1495 1497 1498 1499 1500 1502 1503 1504 1506 1507 1508 1508
1385 1386 1386 1387 1388 1389 1390 1391 1392 1394 1396 1398 1400 1401 1403 1405 1405 1406 1407 1408 1409 1410 1410 1410 1410 1409 1409 1408 1406 1404 1402 1400 1399 1397 1396 1395 1394 1392 1391 1390 1391 1393 1395 1396 1395 1393 1395 1400 1404 1407 1409 1411 1413 1418 1421 1424 1427 1432 1441 1449 1456 1461 1463 1464 1467 1471 1474 1475 1477 1478 1482 1487 1490 1492 1494 1495 1496 1498 1499 1500 1502 1503 1504 1505 1505
1384 1385 1386 1387 1388 1389 1389 1390 1392 1393 1394 1396 1398 1400 1402 1403 1404 1406 1407 1408 1408 1408 1408 1408 1407 1407 1406 1405 1403 1401 1399 1396 1393 1390 1388 1386 1383 1382 1381 1382 1383 1384 1384 1383 1382 1381 1382 1384 1386 1390 1395 1400 1404 1409 1415 1420 1422 1427 1435 1443 1451 1458 1463 1466 1470 1472 1471 1472 1474 1477 1480 1485 1488 1489 1491 1492 1493 1495 1497 1498 1499 1500 1501 1501 1501
1385 1385 1386 1387 1388 1389 1389 1390 1391 1392 1394 1396 1397 1399 1401 1403 1404 1406 1406 1407 1407 1407 1406 1406 1405 1405 1404 1402 1400 1398 1395 1392 1388 1384 1380 1376 1373 1371 1370 1370 1371 1372 1372 1371 1369 1368 1369 1372 1374 1377 1382 1390 1396 1401 1409 1416 1420 1424 1431 1439 1446 1454 1460 1464 1469 1471 1471 1470 1473 1476 1479 1482 1485 1487 1488 1490 1491 1492 1493 1495 1496 1497 1497 1498 1498
1386 1387 1388 1389 1390 1390 1390 1390 1391 1392 1394 1395 1397 1399 1401 1403 1404 1405 1405 1406 1406 1405 1405 1405 1404 1403 1401 1399 1397 1395 1392 1388 1384 1379 1375 1370 1366 1363 1360 1359 1358 1359 1361 1362 1361 1360 1360 1365 1371 1375 1379 1384 1390 1398 1406 1415 1420 1425 1430 1437 1443 1449 1455 1460 1465 1469 1471 1471 1472 1474 1477 1481 1483 1485 1486 1487 1488 1489 1490 1492 1493 1493 1494 1495 1495
1387 1388 1390 1391 1391 1391 1391 1391 1391 1392 1394 1395 1397 1399 1401 1402 1403 1404 1404 1405 1404 1404 1404 1403 1402 1401 1399 1397 1396 1393 1390 1386 1382 1377 1373 1369 1364 1358 1354 1352 1351 1352 1355 1357 1357 1358 1359 1363 1370 1375 1380 1383 1389 1397 1407 1416 1422 1427 1432 1438 1443 1447 1452 1458 1463 1467 1470 1471 1472 1473 1476 1479 1481 1482 1483 1484 1485 1486 1487 1488 1489 1490 1491 1491 1492
1389 1390 1391 1392 1392 1393 1393 1393 1393 1394 1396 1397 1398 1400 1401 1402 1403 1404 1404 1403 1403 1403 1402 1402 1401 1400 1398 1396 1394 1392 1388 1385 1381 1377 1373 1368 1362 1355 1351 1349 1350 1353 1356 1358 1358 1356 1357 1361 1367 1372 1377 1385 1392 1399 1408 1417 1424 1429 1434 1440 1444 1448 1452 1457 1462 1466 1468 1469 1470 1472 1475 1477 1479 1480 1481 1482 1483 1483 1484 1485 1486 1487 1487 1487 1488
1392 1392 1392 1392 1393 1394 1395 1396 1397 1398 1399 1400 1400 1401 1401 1402 1403 1403 1403 1403 1402 1402 1401 1401 1400 1399 1397 1396 1394 1392 1389 1387 1384 1380 1376 1371 1364 1357 1351 1348 1350 1354 1357 1360 1360 1354 1348 1352 1363 1371 1377 1385 1393 1400 1408 1417 1424 1430 1435 1440 1444 1449 1453 1457 1461 1464 1466 1468 1469 1471 1473 1476 1477 1478 1479 1479 1480 1480 1481 1482 1483 1484 1485 1485 1486
1395 1395 1395 1395 1396 1397 1398 1400 1401 1402 1402 1402 1402 1402 1401 1402 1402 1402 1402 1402 1401 1401 1400 1400 1400 1398 1397 1396 1394 1393 1391 1390 1387 1384 1381 1378 1374 1368 1359 1351 1350 1356 1362 1366 1369 1364 1355 1356 1367 1376 1381 1387 1395 1402 1410 1418 1424 1430 1435 1440 1444 1449 1453 1456 1460 1462 1464 1466 1468 1470 1472 1474 1475 1475 1476 1477 1477 1478 1478 1479 1480 1481 1483 1484 1485
1397 1398 1398 1399 1399 1400 1401 1403 1403 1404 1404 1403 1403 1403 1402 1402 1402 1402 1401 1401 1401 1401 1400 1400 1399 1398 1397 1396 1396 1394 1393 1392 1390 1388 1386 1384 1382 1379 1372 1361 1357 1362 1372 1379 1383 1383 1378 1375 1379 1383 1387 1393 1401 1408 1414 1420 1424 1429 1435 1439 1444 1449 1453 1455 1458 1461 1462 1464 1467 1469 1470 1471 1472 1472 1473 1474 1475 1475 1476 1476 1477 1479 1480 1482 1483
1400 1400 1401 1401 1402 1402 1402 1403 1403 1403 1404 1404 1403 1403 1403 1403 1402 1401 1401 1401 1401 1401 1401 1400 1399 1399 1398 1397 1397 1396 1395 1394 1393 1391 1390 1388 1386 1383 1380 1374 1367 1369 1377 1386 1392 1396 1395 1391 1390 1392 1396 1401 1407 1411 1416 1421 1425 1430 1434 1439 1444 1448 1451 1454 1457 1459 1460 1463 1465 1466 1467 1468 1469 1470 1471 1472 1472 1473 1473 1474 1475 1477 1478 1479 1480
1402 1402 1403 1403 1402 1402 1402 1403 1403 1403 1403 1403 1403 1403 1403 1404 1404 1402 1402 1401 1401 1401 1401 1401 1400 1399 1399 1398 1398 1398 1397 1396 1395 1393 1391 1391 1389 1387 1385 1382 1378 1377 1380 1386 1395 1401 1402 1400 1399 1400 1404 1407 1410 1414 1418 1422 1426 1430 1435 1439 1443 1447 1450 1453 1455 1457 1459 1461 1462 1463 1465 1466 1466 1467 1468 1469 1469 1470 1471 1472 1473 1474 1476 1477 1478
1403 1404 1404 1404 1403 1403 1403 1403 1403 1404 1404 1404 1404 1405 1405 1405 1405 1404 1403 1403 1402 1402 1402 1402 1401 1401 1400 1400 1399 1399 1398 1398 1397 1396 1394 1393 1392 1391 1390 1388 1386 1385 1386 1389 1395 1400 1402 1402 1402 1404 1407 1411 1414 1417 1420 1423 1427 1431 1435 1438 1442 1446 1448 1451 1453 1455 1457 1459 1460 1461 1462 1463 1464 1465 1466 1466 1467 1468 1468 1469 1471 1472 1474 1475 1475
1404 1404 1404 1404 1404 1404 1404 1404 1404 1405 1405 1405 1406 1406 1406 1406 1406 1405 1405 1404 1404 1403 1403 1403 1403 1402 1402 1401 1400 1400 1399 1399 1399 1398 1398 1397 1395 1395 1394 1394 1393 1392 1393 1395 1397 1400 1402 1403 1405 1407 1410 1413 1416 1419 1422 1425 1428 1432 1435 1439 1442 1445 1447 1449 1452 1453 1455 1457 1458 1459 1460 1461 1462 1463 1464 1464 1464 1465 1466 1467 1468 1470 1471 1472 1473
1406 1406 1406 1405 1405 1404 1404 1404 1404 1405 1406 1406 1407 1407 1407 1407 1406 1406 1405 1404 1404 1404 1404 1404 1404 1403 1402 1402 1401 1401 1401 1401 1400 1399 1399 1399 1398 1398 1398 1399 1399 1399 1399 1400 1402 1403 1404 1406 1408 1409 1412 1414 1417 1420 1424 1427 1430 1433 1437 1440 1443 1445 1447 1448 1450 1452 1453 1455 1457 1458 1458 1459 1460 1460 1461 1462 1462 1463 1464 1465 1467 1468 1469 1469 1470
1408 1407 1407 1407 1406 1406 1405 1405 1405 1405 1406 1406 1407 1407 1408 1407 1407 1406 1405 1405 1405 1405 1405 1404 1404 1403 1402 1402 1402 1402 1402 1402 1402 1401 1400 1400 1400 1400 1401 1402 1402 1403 1403 1404 1405 1406 1407 1409 1410 1412 1414 1416 1419 1422 1425 1428 1431 1434 1437 1440 1442 1444 1445 1447 1449 1450 1452 1453 1455 1456 1457 1457 1458 1458 1459 1459 1460 1461 1462 1464 1465 1466 1467 1467 1468
1409 1409 1408 1407 1407 1406 1406 1406 1406 1406 1406 1407 1407 1407 1408 1408 1407 1407 1406 1405 1405 1405 1405 1405 1404 1404 1403 1403 1402 1402 1402 1402 1402 1402 1402 1401 1402 1403 1403 1403 1404 1405 1406 1407 1408 1409 1410 1411 1412 1414 1416 1418 1420 1423 1426 1429 1432 1434 1437 1439 1441 1442 1444 1446 1448 1449 1451 1452 1453 1454 1455 1455 1456 1457 1457 1458 1459 1460 1461 1463 1463 1464 1465 1465 1465
1410 1410 1408 1407 1406 1406 1405 1405 1406 1406 1407 1407 1407 1407 1407 1407 1407 1407 1406 1406 1406 1405 1406 1406 1406 1405 1405 1404 1403 1403 1403 1403 1403 1403 1403 1403 1404 1404 1405 1405 1406 1407 1408 1409 1410 1411 1412 1413 1414 1416 1417 1419 1422 1424 1427 1429 1432 1434 1436 1437 1439 1441 1443 1445 1446 1447 1449 1449 1450 1451 1452 1453 1454 1455 1456 1456 1458 1459 1460 1461 1462 1462 1463 1463 1463
1411 1410 1409 1409 1408 1407 1407 1406 1406 1406 1406 1406 1406 1406 1406 1406 1406 1406 1406 1406 1406 1406 1407 1408 1408 1407 1407 1407 1406 1405 1404 1404 1404 1404 1405 1405 1405 1406 1406 1407 1408 1409 1409 1410 1411 1412 1413 1414 1415 1417 1419 1421 1423 1425 1427 1429 1431 1433 1434 1436 1438 1440 1442 1443 1444 1445 1446 1447 1448 1449 1450 1451 1452 1453 1454 1455 1456 1457 1458 1459 1459 1460 1460 1460 1461
1412 1411 1411 1410 1410 1409 1409 1408 1408 1407 1407 1407 1406 1406 1406 1405 1405 1405 1405 1405 1406 1406 1407 1407 1408 1408 1408 1408 1407 1407 1406 1406 1405 1406 1406 1406 1406 1407 1408 1408 1409 1410 1411 1411 1412 1413 1414 1416 1417 1418 1420 1422 1424 1426 1428 1429 1431 1432 1434 1436 1438 1439 1440 1442 1442 1443 1444 1445 1446 1447 1448 1449 1450 1451 1452 1453 1454 1455 1456 1456 1457 1457 1458 1458 1459